{"data":{"norad_id":61893,"epoch":"2026-09-21T18:32:39.605568Z","epoch_age_seconds":78503,"freshness":"FRESH","line1":"1 61893U 24204V   26264.77268062 -.00010035  00000+0 -28609-3 0  9995","line2":"2 61893  53.1642 291.6939 0001137 146.1342 213.9733 15.34418736105176","mean_motion":15.34418736,"eccentricity":0.0001137,"inclination_deg":53.1642,"raan_deg":291.6939,"arg_perigee_deg":146.1342,"mean_anomaly_deg":213.9733,"bstar":-0.00028609,"rev_number":10517,"period_min":93.846612154506,"perigee_km":461.86975622959,"apogee_km":463.42535063704,"semimajor_km":6840.7845534333,"source":"CELESTRAK","updated_at":"2026-09-22T09:00:49.448458Z"}}